Time,TemperatureF,DewpointF,PressureIn,WindDirection,WindDirectionDegrees,WindSpeedMPH,WindSpeedGustMPH,Humidity,HourlyPrecipIn,Conditions,Clouds,dailyrainin,SolarRadiationWatts/m^2,SoftwareType,DateUTC
2013-07-10 00:01:00,78.1,77.7,30.11,West,270,0.0,0.0,99,0.00,,,0.00,628.0,meteobridge,2013-07-10 04:01:00,
2013-07-10 00:03:00,78.1,77.7,30.11,West,270,0.0,0.0,99,0.00,,,0.00,664.0,meteobridge,2013-07-10 04:03:00,
2013-07-10 00:08:00,77.9,77.5,30.10,West,270,0.0,0.0,99,0.00,,,0.00,664.0,meteobridge,2013-07-10 04:08:00,
2013-07-10 00:13:00,77.9,77.5,30.11,East,90,1.6,1.6,99,0.00,,,0.00,664.0,meteobridge,2013-07-10 04:13:00,
2013-07-10 00:19:00,77.9,77.5,30.11,East,90,0.0,0.0,99,0.00,,,0.00,664.0,meteobridge,2013-07-10 04:19:00,
2013-07-10 00:24:00,77.9,77.5,30.10,NE,45,0.7,1.6,99,0.00,,,0.00,664.0,meteobridge,2013-07-10 04:24:00,
2013-07-10 00:29:00,77.9,77.5,30.10,NE,45,0.0,0.0,99,0.00,,,0.00,664.0,meteobridge,2013-07-10 04:29:00,
2013-07-10 00:34:00,77.9,77.5,30.10,NE,45,0.7,0.7,99,0.00,,,0.00,664.0,meteobridge,2013-07-10 04:34:00,
2013-07-10 00:39:00,78.1,77.7,30.11,NE,45,0.0,0.0,99,0.00,,,0.00,664.0,meteobridge,2013-07-10 04:39:00,
2013-07-10 00:44:00,78.1,77.7,30.10,North,0,0.7,0.7,99,0.00,,,0.00,701.0,meteobridge,2013-07-10 04:44:00,
2013-07-10 00:50:00,77.9,77.5,30.11,NW,315,0.0,0.0,99,0.00,,,0.00,701.0,meteobridge,2013-07-10 04:50:00,
2013-07-10 00:55:00,77.9,77.5,30.11,NW,315,0.0,0.0,99,0.00,,,0.00,701.0,meteobridge,2013-07-10 04:55:00,
2013-07-10 01:00:00,77.9,77.5,30.11,NW,315,0.0,0.0,99,0.00,,,0.00,701.0,meteobridge,2013-07-10 05:00:00,
2013-07-10 01:05:00,77.9,77.5,30.10,NW,315,0.0,0.0,99,0.00,,,0.00,701.0,meteobridge,2013-07-10 05:05:00,
2013-07-10 01:10:00,77.7,77.4,30.10,East,90,0.7,1.6,99,0.00,,,0.00,701.0,meteobridge,2013-07-10 05:10:00,
2013-07-10 01:15:00,77.7,77.4,30.10,East,90,1.6,2.2,99,0.00,,,0.00,701.0,meteobridge,2013-07-10 05:15:00,
2013-07-10 01:21:00,77.5,77.2,30.10,East,90,0.7,0.7,99,0.00,,,0.00,701.0,meteobridge,2013-07-10 05:21:00,
2013-07-10 01:26:00,77.5,77.2,30.10,East,90,0.7,0.7,99,0.00,,,0.00,738.0,meteobridge,2013-07-10 05:26:00,
2013-07-10 01:31:00,77.5,77.2,30.10,East,90,0.0,0.0,99,0.00,,,0.00,738.0,meteobridge,2013-07-10 05:31:00,
2013-07-10 01:36:00,77.5,77.2,30.10,West,270,0.0,0.0,99,0.00,,,0.00,738.0,meteobridge,2013-07-10 05:36:00,
2013-07-10 01:41:00,77.4,77.0,30.10,North,0,0.0,0.7,99,0.00,,,0.00,738.0,meteobridge,2013-07-10 05:41:00,
2013-07-10 01:46:00,77.4,77.0,30.10,North,0,0.0,0.7,99,0.00,,,0.00,774.0,meteobridge,2013-07-10 05:46:00,
2013-07-10 01:52:00,77.4,77.0,30.10,East,90,2.2,2.2,99,0.00,,,0.00,774.0,meteobridge,2013-07-10 05:52:00,
2013-07-10 01:57:00,77.5,77.2,30.10,East,90,1.6,1.6,99,0.00,,,0.00,738.0,meteobridge,2013-07-10 05:57:00,
2013-07-10 02:02:00,77.4,77.0,30.10,East,90,1.6,1.6,99,0.00,,,0.00,738.0,meteobridge,2013-07-10 06:02:00,
2013-07-10 02:07:00,77.4,77.0,30.09,East,90,1.6,2.2,99,0.00,,,0.00,738.0,meteobridge,2013-07-10 06:07:00,
2013-07-10 02:12:00,77.4,77.0,30.09,East,90,1.6,1.6,99,0.00,,,0.00,738.0,meteobridge,2013-07-10 06:12:00,
2013-07-10 02:17:00,77.4,77.0,30.09,East,90,0.0,1.6,99,0.00,,,0.00,738.0,meteobridge,2013-07-10 06:17:00,
2013-07-10 02:23:00,77.4,77.0,30.09,NE,45,3.1,3.1,99,0.00,,,0.00,701.0,meteobridge,2013-07-10 06:23:00,
2013-07-10 02:28:00,77.4,77.0,30.09,East,90,1.6,2.2,99,0.00,,,0.00,701.0,meteobridge,2013-07-10 06:28:00,
2013-07-10 02:33:00,77.5,77.2,30.09,East,90,1.6,1.6,99,0.00,,,0.00,738.0,meteobridge,2013-07-10 06:33:00,
2013-07-10 02:38:00,77.5,77.2,30.08,East,90,1.6,2.2,99,0.00,,,0.00,738.0,meteobridge,2013-07-10 06:38:00,
2013-07-10 02:43:00,77.5,77.2,30.09,East,90,2.2,2.2,99,0.00,,,0.00,738.0,meteobridge,2013-07-10 06:43:00,
2013-07-10 02:48:00,77.5,77.2,30.08,East,90,2.2,3.1,99,0.00,,,0.00,738.0,meteobridge,2013-07-10 06:48:00,
2013-07-10 02:54:00,77.4,77.0,30.08,East,90,1.6,1.6,99,0.00,,,0.00,738.0,meteobridge,2013-07-10 06:54:00,
2013-07-10 02:59:00,77.4,77.0,30.08,East,90,2.2,2.2,99,0.00,,,0.00,738.0,meteobridge,2013-07-10 06:59:00,
2013-07-10 03:04:00,77.4,77.0,30.08,East,90,2.2,2.2,99,0.00,,,0.00,738.0,meteobridge,2013-07-10 07:04:00,
2013-07-10 03:09:00,77.2,76.8,30.08,East,90,3.8,4.5,99,0.00,,,0.00,738.0,meteobridge,2013-07-10 07:09:00,
2013-07-10 03:14:00,77.0,76.6,30.08,East,90,3.1,3.1,99,0.00,,,0.00,738.0,meteobridge,2013-07-10 07:14:00,
2013-07-10 03:19:00,76.8,76.5,30.08,East,90,3.8,3.8,99,0.00,,,0.00,738.0,meteobridge,2013-07-10 07:19:00,
2013-07-10 03:25:00,76.8,76.5,30.08,East,90,3.1,4.5,99,0.00,,,0.00,774.0,meteobridge,2013-07-10 07:25:00,
2013-07-10 03:30:00,76.8,76.5,30.08,East,90,3.1,3.1,99,0.00,,,0.00,774.0,meteobridge,2013-07-10 07:30:00,
2013-07-10 03:35:00,76.5,76.1,30.08,East,90,3.1,3.1,99,0.00,,,0.00,774.0,meteobridge,2013-07-10 07:35:00,
2013-07-10 03:40:00,76.5,76.1,30.08,East,90,3.1,3.8,99,0.00,,,0.00,774.0,meteobridge,2013-07-10 07:40:00,
2013-07-10 03:45:00,76.3,75.9,30.08,East,90,3.1,3.1,99,0.00,,,0.00,774.0,meteobridge,2013-07-10 07:45:00,
2013-07-10 03:51:00,76.1,75.7,30.08,East,90,2.2,3.8,99,0.00,,,0.00,774.0,meteobridge,2013-07-10 07:51:00,
2013-07-10 03:56:00,76.1,75.7,30.08,East,90,4.5,4.5,99,0.00,,,0.00,774.0,meteobridge,2013-07-10 07:56:00,
2013-07-10 04:01:00,76.1,75.7,30.08,SE,135,3.8,3.8,99,0.00,,,0.00,774.0,meteobridge,2013-07-10 08:01:00,
2013-07-10 04:06:00,75.9,75.6,30.08,South,180,2.2,3.1,99,0.00,,,0.00,774.0,meteobridge,2013-07-10 08:06:00,
2013-07-10 04:11:00,75.9,75.6,30.08,SE,135,1.6,1.6,99,0.00,,,0.00,774.0,meteobridge,2013-07-10 08:11:00,
2013-07-10 04:16:00,75.7,75.4,30.08,East,90,0.7,2.2,99,0.00,,,0.00,774.0,meteobridge,2013-07-10 08:16:00,
2013-07-10 04:22:00,75.7,75.4,30.08,NW,315,0.7,1.6,99,0.00,,,0.00,774.0,meteobridge,2013-07-10 08:22:00,
2013-07-10 04:27:00,75.7,75.4,30.08,WNW,293,0.0,0.0,99,0.00,,,0.00,774.0,meteobridge,2013-07-10 08:27:00,
2013-07-10 04:32:00,75.4,75.0,30.08,NW,315,0.7,0.7,99,0.00,,,0.00,774.0,meteobridge,2013-07-10 08:32:00,
2013-07-10 04:37:00,75.4,75.0,30.08,NW,315,0.0,0.0,99,0.00,,,0.00,774.0,meteobridge,2013-07-10 08:37:00,
2013-07-10 04:42:00,75.2,74.8,30.08,NE,45,0.0,0.0,99,0.00,,,0.00,774.0,meteobridge,2013-07-10 08:42:00,
2013-07-10 04:47:00,75.2,74.8,30.08,East,90,0.7,1.6,99,0.00,,,0.00,774.0,meteobridge,2013-07-10 08:47:00,
2013-07-10 04:53:00,75.2,74.8,30.08,East,90,0.7,0.7,99,0.00,,,0.00,774.0,meteobridge,2013-07-10 08:53:00,
2013-07-10 04:58:00,75.2,74.8,30.08,East,90,0.7,1.6,99,0.00,,,0.00,774.0,meteobridge,2013-07-10 08:58:00,
2013-07-10 05:03:00,75.2,74.8,30.08,West,270,0.0,0.0,99,0.00,,,0.00,774.0,meteobridge,2013-07-10 09:03:00,
2013-07-10 05:08:00,75.0,74.7,30.08,NW,315,0.0,0.0,99,0.00,,,0.00,774.0,meteobridge,2013-07-10 09:08:00,
2013-07-10 05:13:00,74.8,74.5,30.07,West,270,0.0,0.0,99,0.00,,,0.00,774.0,meteobridge,2013-07-10 09:13:00,
2013-07-10 05:18:00,74.8,74.5,30.07,North,0,0.0,0.0,99,0.00,,,0.00,774.0,meteobridge,2013-07-10 09:18:00,
2013-07-10 05:24:00,74.7,74.3,30.08,NW,315,0.0,0.0,99,0.00,,,0.00,774.0,meteobridge,2013-07-10 09:24:00,
2013-07-10 05:29:00,74.7,74.3,30.08,West,270,0.0,0.0,99,0.00,,,0.00,774.0,meteobridge,2013-07-10 09:29:00,
2013-07-10 05:34:00,74.5,74.1,30.08,West,270,0.0,0.0,99,0.00,,,0.00,811.0,meteobridge,2013-07-10 09:34:00,
2013-07-10 05:39:00,74.5,74.1,30.08,West,270,0.0,0.0,99,0.00,,,0.00,811.0,meteobridge,2013-07-10 09:39:00,
2013-07-10 05:44:00,74.3,73.9,30.08,North,0,0.0,0.0,99,0.00,,,0.00,811.0,meteobridge,2013-07-10 09:44:00,
2013-07-10 05:49:00,74.3,73.9,30.07,NW,315,0.0,0.7,99,0.00,,,0.00,811.0,meteobridge,2013-07-10 09:49:00,
2013-07-10 05:55:00,74.3,73.9,30.07,NW,315,0.0,0.7,99,0.00,,,0.00,811.0,meteobridge,2013-07-10 09:55:00,
2013-07-10 06:00:00,74.3,73.9,30.08,NW,315,0.0,0.7,99,0.00,,,0.00,811.0,meteobridge,2013-07-10 10:00:00,
2013-07-10 06:05:00,74.1,73.8,30.07,NE,45,0.7,0.7,99,0.00,,,0.00,811.0,meteobridge,2013-07-10 10:05:00,
2013-07-10 06:10:00,74.1,73.8,30.08,NE,45,1.6,1.6,99,0.00,,,0.00,811.0,meteobridge,2013-07-10 10:10:00,
2013-07-10 06:15:00,74.1,73.8,30.08,East,90,0.0,1.6,99,0.00,,,0.00,811.0,meteobridge,2013-07-10 10:15:00,
2013-07-10 06:20:00,74.3,73.9,30.08,East,90,2.2,3.1,99,0.00,,,0.00,811.0,meteobridge,2013-07-10 10:20:00,
2013-07-10 06:26:00,74.3,73.9,30.08,East,90,0.7,2.2,99,0.00,,,0.00,811.0,meteobridge,2013-07-10 10:26:00,
2013-07-10 06:31:00,74.3,73.9,30.08,SW,225,0.0,0.0,99,0.00,,,0.00,811.0,meteobridge,2013-07-10 10:31:00,
2013-07-10 06:36:00,74.5,74.1,30.07,East,90,2.2,2.2,99,0.00,,,0.00,774.0,meteobridge,2013-07-10 10:36:00,
2013-07-10 06:41:00,74.3,73.9,30.08,East,90,1.6,2.2,99,0.00,,,0.00,774.0,meteobridge,2013-07-10 10:41:00,
2013-07-10 06:46:00,74.3,73.9,30.08,East,90,0.7,2.2,99,0.00,,,0.00,774.0,meteobridge,2013-07-10 10:46:00,
2013-07-10 06:51:00,74.3,73.9,30.08,NW,315,0.7,0.7,99,0.00,,,0.00,774.0,meteobridge,2013-07-10 10:51:00,
2013-07-10 06:57:00,74.3,73.9,30.08,NW,315,0.7,0.7,99,0.00,,,0.00,811.0,meteobridge,2013-07-10 10:57:00,
2013-07-10 07:02:00,74.1,73.8,30.08,NW,315,0.0,0.0,99,0.00,,,0.00,811.0,meteobridge,2013-07-10 11:02:00,
2013-07-10 07:07:00,74.1,73.8,30.08,NW,315,0.0,0.0,99,0.00,,,0.00,811.0,meteobridge,2013-07-10 11:07:00,
2013-07-10 07:12:00,74.3,73.9,30.08,NE,45,0.7,0.7,99,0.00,,,0.00,811.0,meteobridge,2013-07-10 11:12:00,
2013-07-10 07:17:00,74.5,74.1,30.08,East,90,1.6,1.6,99,0.00,,,0.00,811.0,meteobridge,2013-07-10 11:17:00,
2013-07-10 07:22:00,74.7,74.3,30.09,East,90,2.2,2.2,99,0.00,,,0.00,811.0,meteobridge,2013-07-10 11:22:00,
2013-07-10 07:28:00,74.8,74.5,30.08,NE,45,0.7,2.2,99,0.00,,,0.00,811.0,meteobridge,2013-07-10 11:28:00,
2013-07-10 07:33:00,75.6,75.2,30.09,ESE,113,1.6,2.2,99,0.00,,,0.00,811.0,meteobridge,2013-07-10 11:33:00,
2013-07-10 07:38:00,75.9,75.6,30.09,North,0,2.2,2.2,99,0.00,,,0.00,811.0,meteobridge,2013-07-10 11:38:00,
2013-07-10 07:43:00,76.5,76.1,30.09,East,90,2.2,2.2,99,0.00,,,0.00,811.0,meteobridge,2013-07-10 11:43:00,
2013-07-10 07:48:00,77.0,76.6,30.08,East,90,1.6,1.6,99,0.00,,,0.00,811.0,meteobridge,2013-07-10 11:48:00,
2013-07-10 07:53:00,77.2,76.8,30.08,East,90,2.2,3.8,99,0.00,,,0.00,811.0,meteobridge,2013-07-10 11:53:00,
2013-07-10 07:59:00,77.4,77.0,30.08,East,90,3.8,3.8,99,0.00,,,0.00,811.0,meteobridge,2013-07-10 11:59:00,
2013-07-10 08:04:00,77.5,77.2,30.08,East,90,3.1,3.1,99,0.00,,,0.00,811.0,meteobridge,2013-07-10 12:04:00,
2013-07-10 08:09:00,77.7,77.4,30.08,East,90,2.2,3.8,99,0.00,,,0.00,811.0,meteobridge,2013-07-10 12:09:00,
2013-07-10 08:14:00,77.9,77.5,30.09,East,90,3.8,3.8,99,0.00,,,0.00,811.0,meteobridge,2013-07-10 12:14:00,
2013-07-10 08:19:00,78.1,77.7,30.09,SE,135,1.6,3.8,99,0.00,,,0.00,811.0,meteobridge,2013-07-10 12:19:00,
2013-07-10 08:24:00,78.3,77.9,30.09,East,90,2.2,4.5,99,0.00,,,0.00,188.0,meteobridge,2013-07-10 12:24:00,
2013-07-10 08:30:00,78.4,78.1,30.09,East,90,2.2,3.1,99,0.00,,,0.00,188.0,meteobridge,2013-07-10 12:30:00,
2013-07-10 08:35:00,78.8,78.4,30.09,East,90,3.1,3.1,99,0.00,,,0.00,188.0,meteobridge,2013-07-10 12:35:00,
2013-07-10 08:40:00,79.2,78.8,30.09,NE,45,1.6,2.2,99,0.00,,,0.00,188.0,meteobridge,2013-07-10 12:40:00,
2013-07-10 08:45:00,79.9,79.5,30.09,East,90,3.1,3.1,99,0.00,,,0.00,188.0,meteobridge,2013-07-10 12:45:00,
2013-07-10 08:50:00,80.2,79.7,30.10,North,0,1.6,3.1,98,0.00,,,0.00,188.0,meteobridge,2013-07-10 12:50:00,
2013-07-10 08:55:00,80.2,79.3,30.10,South,180,3.1,3.1,97,0.00,,,0.00,152.0,meteobridge,2013-07-10 12:55:00,
2013-07-10 09:01:00,80.6,79.0,30.10,East,90,2.2,2.2,95,0.00,,,0.00,152.0,meteobridge,2013-07-10 13:01:00,
2013-07-10 09:06:00,80.8,79.2,30.10,East,90,2.2,2.2,95,0.00,,,0.00,152.0,meteobridge,2013-07-10 13:06:00,
2013-07-10 09:11:00,81.1,79.2,30.10,East,90,1.6,3.1,94,0.00,,,0.00,152.0,meteobridge,2013-07-10 13:11:00,
2013-07-10 09:16:00,81.5,79.0,30.10,SW,225,1.6,1.6,92,0.00,,,0.00,152.0,meteobridge,2013-07-10 13:16:00,
2013-07-10 09:21:00,81.5,79.0,30.10,East,90,2.2,2.2,92,0.00,,,0.00,152.0,meteobridge,2013-07-10 13:21:00,
2013-07-10 09:26:00,81.3,78.1,30.11,East,90,5.4,5.4,90,0.00,,,0.00,115.0,meteobridge,2013-07-10 13:26:00,
2013-07-10 09:32:00,81.7,79.2,30.10,NE,45,1.6,2.2,92,0.00,,,0.00,115.0,meteobridge,2013-07-10 13:32:00,
2013-07-10 09:37:00,81.5,78.3,30.10,NE,45,1.6,1.6,90,0.00,,,0.00,115.0,meteobridge,2013-07-10 13:37:00,
2013-07-10 09:42:00,82.0,79.2,30.10,NW,315,2.2,2.2,91,0.00,,,0.00,115.0,meteobridge,2013-07-10 13:42:00,
2013-07-10 09:47:00,83.8,79.9,30.10,West,270,3.1,3.1,88,0.00,,,0.00,115.0,meteobridge,2013-07-10 13:47:00,
2013-07-10 09:52:00,83.8,78.8,30.10,North,0,0.7,2.2,85,0.00,,,0.00,115.0,meteobridge,2013-07-10 13:52:00,
2013-07-10 09:57:00,83.7,77.5,30.10,SE,135,0.7,1.6,82,0.00,,,0.00,78.0,meteobridge,2013-07-10 13:57:00,
2013-07-10 10:03:00,84.0,77.9,30.10,East,90,1.6,1.6,82,0.00,,,0.00,78.0,meteobridge,2013-07-10 14:03:00,
2013-07-10 10:08:00,84.4,77.9,30.10,North,0,1.6,3.8,81,0.00,,,0.00,78.0,meteobridge,2013-07-10 14:08:00,
2013-07-10 10:13:00,85.6,78.4,30.10,NW,315,2.2,3.1,79,0.00,,,0.00,78.0,meteobridge,2013-07-10 14:13:00,
2013-07-10 10:18:00,86.0,75.9,30.09,North,0,2.2,3.8,72,0.00,,,0.00,78.0,meteobridge,2013-07-10 14:18:00,
2013-07-10 10:23:00,85.8,75.4,30.10,North,0,1.6,2.2,71,0.00,,,0.00,78.0,meteobridge,2013-07-10 14:23:00,
2013-07-10 10:29:00,85.6,74.3,30.10,SW,225,1.6,1.6,69,0.00,,,0.00,42.0,meteobridge,2013-07-10 14:29:00,
2013-07-10 10:34:00,85.5,75.0,30.10,South,180,6.9,7.6,71,0.00,,,0.00,42.0,meteobridge,2013-07-10 14:34:00,
2013-07-10 10:39:00,85.1,74.1,30.09,East,90,3.8,5.4,70,0.00,,,0.00,42.0,meteobridge,2013-07-10 14:39:00,
2013-07-10 10:44:00,84.7,75.2,30.10,NE,45,0.7,0.7,73,0.00,,,0.00,5.0,meteobridge,2013-07-10 14:44:00,
2013-07-10 10:49:00,86.2,76.1,30.10,East,90,2.2,3.8,72,0.00,,,0.00,5.0,meteobridge,2013-07-10 14:49:00,
2013-07-10 10:54:00,85.8,74.5,30.09,East,90,3.1,5.4,69,0.00,,,0.00,5.0,meteobridge,2013-07-10 14:54:00,
2013-07-10 11:00:00,85.8,75.4,30.09,West,270,5.4,5.4,71,0.00,,,0.00,5.0,meteobridge,2013-07-10 15:00:00,
2013-07-10 11:05:00,85.8,76.1,30.09,NE,45,1.6,3.8,73,0.00,,,0.00,5.0,meteobridge,2013-07-10 15:05:00,
2013-07-10 11:10:00,86.4,75.4,30.09,NE,45,2.2,5.4,70,0.00,,,0.00,5.0,meteobridge,2013-07-10 15:10:00,
2013-07-10 11:15:00,87.1,74.8,30.09,NNW,338,3.1,3.1,67,0.00,,,0.00,5.0,meteobridge,2013-07-10 15:15:00,
2013-07-10 11:20:00,88.2,73.9,30.09,ESE,113,2.2,2.2,63,0.00,,,0.00,5.0,meteobridge,2013-07-10 15:20:00,
2013-07-10 11:25:00,86.5,73.8,30.09,SE,135,3.8,4.5,66,0.00,,,0.00,,meteobridge,2013-07-10 15:25:00,
2013-07-10 11:31:00,85.6,73.9,30.09,SW,225,0.7,0.7,68,0.00,,,0.00,,meteobridge,2013-07-10 15:31:00,
2013-07-10 11:36:00,86.5,73.8,30.09,East,90,3.1,3.1,66,0.00,,,0.00,,meteobridge,2013-07-10 15:36:00,
2013-07-10 11:41:00,86.9,74.7,30.09,NW,315,2.2,5.4,67,0.00,,,0.00,,meteobridge,2013-07-10 15:41:00,
2013-07-10 11:46:00,87.6,73.9,30.09,East,90,6.0,6.0,64,0.00,,,0.00,,meteobridge,2013-07-10 15:46:00,
2013-07-10 11:51:00,87.4,74.3,30.09,NE,45,4.5,4.5,65,0.00,,,0.00,,meteobridge,2013-07-10 15:51:00,
2013-07-10 11:56:00,88.3,73.6,30.09,NW,315,3.1,4.5,62,0.00,,,0.00,,meteobridge,2013-07-10 15:56:00,
2013-07-10 12:02:00,89.6,74.8,30.09,East,90,1.6,2.2,62,0.00,,,0.00,,meteobridge,2013-07-10 16:02:00,
2013-07-10 12:07:00,88.3,72.1,30.09,East,90,5.4,5.4,59,0.00,,,0.00,,meteobridge,2013-07-10 16:07:00,
2013-07-10 12:12:00,87.6,72.5,30.08,East,90,3.1,3.8,61,0.00,,,0.00,,meteobridge,2013-07-10 16:12:00,
2013-07-10 12:17:00,87.8,74.5,30.08,NE,45,3.1,3.8,65,0.00,,,0.00,,meteobridge,2013-07-10 16:17:00,
2013-07-10 12:22:00,88.9,74.7,30.08,North,0,2.2,3.1,63,0.00,,,0.00,,meteobridge,2013-07-10 16:22:00,
2013-07-10 12:27:00,89.6,72.9,30.08,NE,45,1.6,3.8,58,0.00,,,0.00,,meteobridge,2013-07-10 16:27:00,
2013-07-10 12:33:00,90.3,73.6,30.08,NE,45,2.2,2.2,58,0.00,,,0.00,,meteobridge,2013-07-10 16:33:00,
2013-07-10 12:38:00,90.3,75.0,30.08,East,90,3.8,4.5,61,0.00,,,0.00,,meteobridge,2013-07-10 16:38:00,
2013-07-10 12:43:00,89.6,72.3,30.08,SW,225,1.6,4.5,57,0.00,,,0.00,,meteobridge,2013-07-10 16:43:00,
2013-07-10 12:48:00,89.2,73.6,30.08,NE,45,1.6,2.2,60,0.00,,,0.00,,meteobridge,2013-07-10 16:48:00,
2013-07-10 12:53:00,89.6,72.9,30.08,North,0,5.4,5.4,58,0.00,,,0.00,,meteobridge,2013-07-10 16:53:00,
2013-07-10 12:58:00,88.9,72.1,30.08,NE,45,4.5,4.5,58,0.00,,,0.00,,meteobridge,2013-07-10 16:58:00,
2013-07-10 13:04:00,88.3,72.7,30.08,NE,45,2.2,2.2,60,0.00,,,0.00,,meteobridge,2013-07-10 17:04:00,
2013-07-10 13:09:00,88.5,71.8,30.07,East,90,6.0,6.0,58,0.00,,,0.00,,meteobridge,2013-07-10 17:09:00,
2013-07-10 13:14:00,88.5,72.9,30.07,NNE,23,5.4,5.4,60,0.00,,,0.00,,meteobridge,2013-07-10 17:14:00,
2013-07-10 13:19:00,89.1,71.8,30.07,SE,135,0.7,3.1,57,0.00,,,0.00,,meteobridge,2013-07-10 17:19:00,
2013-07-10 13:24:00,89.1,71.8,30.07,NW,315,6.0,6.0,57,0.00,,,0.00,,meteobridge,2013-07-10 17:24:00,
2013-07-10 13:29:00,90.0,74.1,30.07,East,90,0.7,2.2,60,0.00,,,0.00,,meteobridge,2013-07-10 17:29:00,
2013-07-10 13:35:00,90.1,73.9,30.06,West,270,1.6,4.5,59,0.00,,,0.00,,meteobridge,2013-07-10 17:35:00,
2013-07-10 13:40:00,90.3,73.0,30.06,NE,45,2.2,3.1,57,0.00,,,0.00,,meteobridge,2013-07-10 17:40:00,
2013-07-10 13:45:00,91.0,73.8,30.06,SW,225,0.7,3.1,57,0.00,,,0.00,,meteobridge,2013-07-10 17:45:00,
2013-07-10 13:50:00,90.3,70.3,30.06,NE,45,2.2,3.1,52,0.00,,,0.00,,meteobridge,2013-07-10 17:50:00,
2013-07-10 13:55:00,90.1,71.8,30.05,NW,315,4.5,4.5,55,0.00,,,0.00,,meteobridge,2013-07-10 17:55:00,
2013-07-10 14:00:00,90.1,72.3,30.05,North,0,1.6,4.5,56,0.00,,,0.00,,meteobridge,2013-07-10 18:00:00,
2013-07-10 14:06:00,90.1,72.3,30.05,SSE,158,3.1,4.5,56,0.00,,,0.00,,meteobridge,2013-07-10 18:06:00,
2013-07-10 14:11:00,91.0,72.1,30.05,East,90,3.1,3.1,54,0.00,,,0.00,,meteobridge,2013-07-10 18:11:00,
2013-07-10 14:16:00,90.3,71.4,30.05,WNW,293,1.6,6.0,54,0.00,,,0.00,,meteobridge,2013-07-10 18:16:00,
2013-07-10 14:21:00,90.5,71.6,30.04,North,0,3.1,3.1,54,0.00,,,0.00,,meteobridge,2013-07-10 18:21:00,
2013-07-10 14:26:00,90.7,71.2,30.04,East,90,2.2,3.1,53,0.00,,,0.00,5.0,meteobridge,2013-07-10 18:26:00,
2013-07-10 14:31:00,90.3,71.4,30.04,SE,135,2.2,2.2,54,0.00,,,0.00,5.0,meteobridge,2013-07-10 18:31:00,
2013-07-10 14:37:00,89.8,71.4,30.03,North,0,1.6,1.6,55,0.00,,,0.00,42.0,meteobridge,2013-07-10 18:37:00,
2013-07-10 14:42:00,89.6,71.8,30.03,NW,315,2.2,3.8,56,0.00,,,0.00,42.0,meteobridge,2013-07-10 18:42:00,
2013-07-10 14:47:00,89.8,73.0,30.03,North,0,2.2,2.2,58,0.00,,,0.00,78.0,meteobridge,2013-07-10 18:47:00,
2013-07-10 14:52:00,90.0,72.1,30.03,NW,315,2.2,3.1,56,0.00,,,0.00,78.0,meteobridge,2013-07-10 18:52:00,
2013-07-10 14:57:00,91.0,72.7,30.02,East,90,3.1,3.8,55,0.00,,,0.00,115.0,meteobridge,2013-07-10 18:57:00,
2013-07-10 15:02:00,91.9,72.3,30.02,NE,45,3.8,3.8,53,0.00,,,0.00,115.0,meteobridge,2013-07-10 19:02:00,
2013-07-10 15:08:00,91.9,71.8,30.02,North,0,3.1,4.5,52,0.00,,,0.00,152.0,meteobridge,2013-07-10 19:08:00,
2013-07-10 15:13:00,91.4,71.8,30.02,ENE,68,1.6,4.5,53,0.00,,,0.00,152.0,meteobridge,2013-07-10 19:13:00,
2013-07-10 15:18:00,91.8,70.5,30.02,SSE,158,2.2,2.2,50,0.00,,,0.00,188.0,meteobridge,2013-07-10 19:18:00,
2013-07-10 15:23:00,91.0,73.2,30.02,South,180,4.5,5.4,56,0.00,,,0.00,188.0,meteobridge,2013-07-10 19:23:00,
2013-07-10 15:28:00,90.1,73.9,30.02,West,270,3.8,3.8,59,0.00,,,0.00,225.0,meteobridge,2013-07-10 19:28:00,
2013-07-10 15:34:00,89.8,73.6,30.01,NW,315,1.6,3.1,59,0.00,,,0.00,262.0,meteobridge,2013-07-10 19:34:00,
2013-07-10 15:39:00,89.8,73.0,30.01,West,270,2.2,4.5,58,0.00,,,0.00,262.0,meteobridge,2013-07-10 19:39:00,
2013-07-10 15:44:00,89.4,73.2,30.01,South,180,3.8,3.8,59,0.00,,,0.00,262.0,meteobridge,2013-07-10 19:44:00,
2013-07-10 15:49:00,88.7,73.0,30.01,South,180,1.6,2.2,60,0.00,,,0.00,262.0,meteobridge,2013-07-10 19:49:00,
2013-07-10 15:54:00,88.7,73.9,30.01,South,180,3.8,3.8,62,0.00,,,0.00,298.0,meteobridge,2013-07-10 19:54:00,
2013-07-10 15:59:00,89.1,73.4,30.01,South,180,2.2,2.2,60,0.00,,,0.00,298.0,meteobridge,2013-07-10 19:59:00,
2013-07-10 16:05:00,89.1,73.9,30.00,SW,225,4.5,4.5,61,0.00,,,0.00,335.0,meteobridge,2013-07-10 20:05:00,
2013-07-10 16:10:00,88.3,73.2,30.01,South,180,0.7,2.2,61,0.00,,,0.00,335.0,meteobridge,2013-07-10 20:10:00,
2013-07-10 16:15:00,87.8,73.6,30.01,East,90,9.2,9.2,63,0.00,,,0.00,371.0,meteobridge,2013-07-10 20:15:00,
2013-07-10 16:20:00,85.5,75.7,30.01,SE,135,8.3,9.8,73,0.00,,,0.00,371.0,meteobridge,2013-07-10 20:20:00,
2013-07-10 16:25:00,83.3,75.7,30.00,SE,135,7.6,7.6,78,0.00,,,0.00,408.0,meteobridge,2013-07-10 20:25:00,
2013-07-10 16:30:00,82.2,76.8,30.00,SE,135,5.4,7.6,84,0.00,,,0.00,408.0,meteobridge,2013-07-10 20:30:00,
2013-07-10 16:36:00,82.0,77.0,30.00,South,180,0.7,2.2,85,0.00,,,0.00,408.0,meteobridge,2013-07-10 20:36:00,
2013-07-10 16:41:00,82.0,78.1,30.00,North,0,2.2,2.2,88,0.04,,,0.04,408.0,meteobridge,2013-07-10 20:41:00,
2013-07-10 16:46:00,81.1,78.3,30.00,West,270,0.7,1.6,91,0.05,,,0.05,445.0,meteobridge,2013-07-10 20:46:00,
2013-07-10 16:51:00,80.8,78.6,30.00,West,270,5.4,5.4,93,0.06,,,0.06,445.0,meteobridge,2013-07-10 20:51:00,
2013-07-10 16:56:00,80.4,78.8,30.00,West,270,2.2,2.2,95,0.06,,,0.06,481.0,meteobridge,2013-07-10 20:56:00,
2013-07-10 17:01:00,80.2,79.0,30.00,South,180,2.2,3.8,96,0.06,,,0.06,481.0,meteobridge,2013-07-10 21:01:00,
2013-07-10 17:07:00,79.9,78.6,30.00,West,270,1.6,1.6,96,0.06,,,0.06,518.0,meteobridge,2013-07-10 21:07:00,
2013-07-10 17:12:00,79.3,78.1,29.99,South,180,0.7,1.6,96,0.06,,,0.06,518.0,meteobridge,2013-07-10 21:12:00,
2013-07-10 17:17:00,79.0,77.7,29.99,South,180,1.6,1.6,96,0.06,,,0.06,554.0,meteobridge,2013-07-10 21:17:00,
2013-07-10 17:22:00,79.2,78.3,29.99,SW,225,2.2,2.2,97,0.06,,,0.06,554.0,meteobridge,2013-07-10 21:22:00,
2013-07-10 17:27:00,79.0,78.1,29.99,West,270,1.6,2.2,97,0.06,,,0.06,591.0,meteobridge,2013-07-10 21:27:00,
2013-07-10 17:32:00,79.2,78.6,29.99,WSW,248,1.6,3.1,98,0.06,,,0.06,591.0,meteobridge,2013-07-10 21:32:00,
2013-07-10 17:38:00,79.2,78.6,30.00,SE,135,4.5,4.5,98,0.06,,,0.06,591.0,meteobridge,2013-07-10 21:38:00,
2013-07-10 17:43:00,79.0,78.6,30.00,NW,315,4.5,4.5,99,0.01,,,0.06,591.0,meteobridge,2013-07-10 21:43:00,
2013-07-10 17:48:00,78.8,78.4,30.00,South,180,2.2,3.1,99,0.00,,,0.06,554.0,meteobridge,2013-07-10 21:48:00,
2013-07-10 17:53:00,78.8,78.4,30.00,NW,315,3.8,4.5,99,0.00,,,0.06,554.0,meteobridge,2013-07-10 21:53:00,
2013-07-10 17:58:00,78.8,78.4,30.00,West,270,5.4,6.0,99,0.00,,,0.06,518.0,meteobridge,2013-07-10 21:58:00,
2013-07-10 18:03:00,78.8,78.4,30.00,SW,225,2.2,3.1,99,0.00,,,0.06,518.0,meteobridge,2013-07-10 22:03:00,
2013-07-10 18:09:00,78.8,78.4,30.00,West,270,5.4,5.4,99,0.00,,,0.06,481.0,meteobridge,2013-07-10 22:09:00,
2013-07-10 18:14:00,78.8,78.4,30.00,SW,225,1.6,1.6,99,0.00,,,0.06,445.0,meteobridge,2013-07-10 22:14:00,
2013-07-10 18:20:00,78.6,78.3,29.99,SSW,203,3.1,3.1,99,0.00,,,0.06,445.0,meteobridge,2013-07-10 22:20:00,
2013-07-10 18:25:00,78.6,78.3,29.99,South,180,0.7,1.6,99,0.00,,,0.06,445.0,meteobridge,2013-07-10 22:25:00,
2013-07-10 18:30:00,78.8,78.4,30.00,West,270,2.2,2.2,99,0.00,,,0.06,445.0,meteobridge,2013-07-10 22:30:00,
2013-07-10 18:35:00,79.0,78.6,29.99,SW,225,3.8,3.8,99,0.00,,,0.06,481.0,meteobridge,2013-07-10 22:35:00,
2013-07-10 18:40:00,79.0,78.6,29.99,West,270,3.8,3.8,99,0.00,,,0.06,481.0,meteobridge,2013-07-10 22:40:00,
2013-07-10 18:45:00,79.0,78.6,29.99,SW,225,2.2,2.2,99,0.00,,,0.06,518.0,meteobridge,2013-07-10 22:45:00,
2013-07-10 18:51:00,79.0,78.6,29.99,SW,225,1.6,1.6,99,0.00,,,0.06,518.0,meteobridge,2013-07-10 22:51:00,
2013-07-10 18:56:00,78.8,78.4,29.99,West,270,2.2,2.2,99,0.00,,,0.06,554.0,meteobridge,2013-07-10 22:56:00,
2013-07-10 19:01:00,78.8,78.4,29.99,South,180,1.6,1.6,99,0.00,,,0.06,554.0,meteobridge,2013-07-10 23:01:00,
2013-07-10 19:06:00,78.8,78.4,29.98,West,270,3.8,3.8,99,0.00,,,0.06,591.0,meteobridge,2013-07-10 23:06:00,
2013-07-10 19:11:00,78.6,78.3,29.98,West,270,3.8,3.8,99,0.00,,,0.06,591.0,meteobridge,2013-07-10 23:11:00,
2013-07-10 19:16:00,78.4,78.1,29.99,WNW,293,2.2,2.2,99,0.00,,,0.06,628.0,meteobridge,2013-07-10 23:16:00,
2013-07-10 19:22:00,78.3,77.9,29.99,West,270,1.6,1.6,99,0.00,,,0.06,628.0,meteobridge,2013-07-10 23:22:00,
2013-07-10 19:27:00,78.3,77.9,29.99,West,270,0.7,1.6,99,0.00,,,0.06,664.0,meteobridge,2013-07-10 23:27:00,
2013-07-10 19:32:00,78.1,77.7,30.00,West,270,0.7,1.6,99,0.00,,,0.06,664.0,meteobridge,2013-07-10 23:32:00,
2013-07-10 19:37:00,78.1,77.7,29.99,NW,315,1.6,3.1,99,0.00,,,0.06,701.0,meteobridge,2013-07-10 23:37:00,
2013-07-10 19:42:00,77.9,77.5,29.99,West,270,1.6,1.6,99,0.00,,,0.06,701.0,meteobridge,2013-07-10 23:42:00,
2013-07-10 19:47:00,77.9,77.5,29.99,West,270,1.6,1.6,99,0.00,,,0.06,774.0,meteobridge,2013-07-10 23:47:00,
2013-07-10 19:53:00,77.7,77.4,29.99,WNW,293,1.6,1.6,99,0.00,,,0.06,774.0,meteobridge,2013-07-10 23:53:00,
2013-07-10 19:58:00,77.5,77.2,29.99,South,180,0.7,0.7,99,0.00,,,0.06,774.0,meteobridge,2013-07-10 23:58:00,
2013-07-10 20:03:00,77.4,77.0,30.00,South,180,1.6,1.6,99,0.00,,,0.06,774.0,meteobridge,2013-07-11 00:03:00,
2013-07-10 20:08:00,77.4,77.0,30.00,East,90,0.0,0.0,99,0.00,,,0.06,811.0,meteobridge,2013-07-11 00:08:00,
2013-07-10 20:13:00,77.5,77.2,30.00,East,90,0.0,0.0,99,0.00,,,0.06,811.0,meteobridge,2013-07-11 00:13:00,
2013-07-10 20:18:00,77.4,77.0,29.99,South,180,0.7,0.7,99,0.00,,,0.06,847.0,meteobridge,2013-07-11 00:18:00,
2013-07-10 20:24:00,77.2,76.8,30.00,West,270,0.0,0.0,99,0.00,,,0.06,847.0,meteobridge,2013-07-11 00:24:00,
2013-07-10 20:29:00,77.2,76.8,30.00,West,270,1.6,1.6,99,0.00,,,0.06,847.0,meteobridge,2013-07-11 00:29:00,
2013-07-10 20:34:00,77.0,76.6,30.00,WSW,248,2.2,2.2,99,0.00,,,0.06,811.0,meteobridge,2013-07-11 00:34:00,
2013-07-10 20:39:00,77.0,76.6,29.99,South,180,0.7,0.7,99,0.00,,,0.06,811.0,meteobridge,2013-07-11 00:39:00,
2013-07-10 20:44:00,77.0,76.6,30.00,West,270,0.7,0.7,99,0.00,,,0.06,774.0,meteobridge,2013-07-11 00:44:00,
2013-07-10 20:50:00,77.0,76.6,30.00,West,270,0.0,0.7,99,0.00,,,0.06,774.0,meteobridge,2013-07-11 00:50:00,
2013-07-10 20:55:00,77.0,76.6,30.00,North,0,0.0,0.0,99,0.00,,,0.06,774.0,meteobridge,2013-07-11 00:55:00,
2013-07-10 21:00:00,77.2,76.8,30.00,East,90,0.7,0.7,99,0.00,,,0.06,774.0,meteobridge,2013-07-11 01:00:00,
2013-07-10 21:05:00,77.4,77.0,30.01,North,0,2.2,3.8,99,0.00,,,0.06,774.0,meteobridge,2013-07-11 01:05:00,
2013-07-10 21:10:00,77.5,77.2,30.01,SE,135,1.6,3.8,99,0.00,,,0.06,774.0,meteobridge,2013-07-11 01:10:00,
2013-07-10 21:15:00,77.5,77.2,30.01,East,90,5.4,5.4,99,0.00,,,0.06,847.0,meteobridge,2013-07-11 01:15:00,
2013-07-10 21:21:00,77.5,77.2,30.01,East,90,3.8,6.9,99,0.00,,,0.06,847.0,meteobridge,2013-07-11 01:21:00,
2013-07-10 21:26:00,77.5,77.2,30.01,NE,45,2.2,4.5,99,0.00,,,0.06,921.0,meteobridge,2013-07-11 01:26:00,
2013-07-10 21:31:00,77.5,77.2,30.02,East,90,3.1,3.1,99,0.00,,,0.06,921.0,meteobridge,2013-07-11 01:31:00,
2013-07-10 21:36:00,77.5,77.2,30.01,East,90,1.6,2.2,99,0.00,,,0.06,994.0,meteobridge,2013-07-11 01:36:00,
2013-07-10 21:41:00,77.5,77.2,30.02,East,90,2.2,2.2,99,0.00,,,0.06,994.0,meteobridge,2013-07-11 01:41:00,
2013-07-10 21:46:00,77.5,77.2,30.02,East,90,2.2,2.2,99,0.00,,,0.06,1104.0,meteobridge,2013-07-11 01:46:00,
2013-07-10 21:52:00,77.7,77.4,30.03,East,90,1.6,2.2,99,0.00,,,0.06,1104.0,meteobridge,2013-07-11 01:52:00,
2013-07-10 21:57:00,77.7,77.4,30.03,South,180,3.1,3.1,99,0.00,,,0.06,1140.0,meteobridge,2013-07-11 01:57:00,
2013-07-10 22:02:00,77.7,77.4,30.03,SE,135,3.8,3.8,99,0.00,,,0.06,1140.0,meteobridge,2013-07-11 02:02:00,
2013-07-10 22:07:00,77.9,77.5,30.03,East,90,3.8,3.8,99,0.00,,,0.06,1140.0,meteobridge,2013-07-11 02:07:00,
2013-07-10 22:12:00,77.9,77.5,30.03,SE,135,1.6,2.2,99,0.00,,,0.06,1140.0,meteobridge,2013-07-11 02:12:00,
2013-07-10 22:17:00,78.1,77.7,30.04,East,90,3.1,3.1,99,0.00,,,0.06,1140.0,meteobridge,2013-07-11 02:17:00,
2013-07-10 22:23:00,78.1,77.7,30.04,East,90,1.6,2.2,99,0.00,,,0.06,1140.0,meteobridge,2013-07-11 02:23:00,
2013-07-10 22:28:00,78.1,77.7,30.04,South,180,2.2,2.2,99,0.00,,,0.06,1140.0,meteobridge,2013-07-11 02:28:00,
2013-07-10 22:33:00,78.1,77.7,30.04,South,180,2.2,2.2,99,0.00,,,0.06,1140.0,meteobridge,2013-07-11 02:33:00,
2013-07-10 22:38:00,78.1,77.7,30.04,SE,135,2.2,2.2,99,0.00,,,0.06,1140.0,meteobridge,2013-07-11 02:38:00,
2013-07-10 22:43:00,78.1,77.7,30.04,East,90,3.1,3.1,99,0.00,,,0.06,1140.0,meteobridge,2013-07-11 02:43:00,
2013-07-10 22:48:00,78.1,77.7,30.04,SE,135,1.6,2.2,99,0.00,,,0.06,1140.0,meteobridge,2013-07-11 02:48:00,
2013-07-10 22:54:00,78.1,77.7,30.04,East,90,3.1,4.5,99,0.00,,,0.06,1140.0,meteobridge,2013-07-11 02:54:00,
2013-07-10 22:59:00,78.1,77.7,30.04,East,90,3.1,3.1,99,0.00,,,0.06,1140.0,meteobridge,2013-07-11 02:59:00,
2013-07-10 23:04:00,77.9,77.5,30.04,South,180,1.6,3.1,99,0.00,,,0.06,1103.0,meteobridge,2013-07-11 03:04:00,
2013-07-10 23:09:00,77.9,77.5,30.04,East,90,1.6,1.6,99,0.00,,,0.06,1103.0,meteobridge,2013-07-11 03:09:00,
2013-07-10 23:14:00,77.9,77.5,30.04,East,90,1.6,2.2,99,0.00,,,0.06,1030.0,meteobridge,2013-07-11 03:14:00,
2013-07-10 23:19:00,78.1,77.7,30.04,East,90,2.2,2.2,99,0.00,,,0.06,1030.0,meteobridge,2013-07-11 03:19:00,
2013-07-10 23:25:00,77.9,77.5,30.04,SE,135,1.6,2.2,99,0.00,,,0.06,1030.0,meteobridge,2013-07-11 03:25:00,
2013-07-10 23:30:00,77.9,77.5,30.03,South,180,3.1,3.1,99,0.00,,,0.06,1030.0,meteobridge,2013-07-11 03:30:00,
2013-07-10 23:35:00,77.9,77.5,30.03,East,90,1.6,1.6,99,0.00,,,0.06,1030.0,meteobridge,2013-07-11 03:35:00,
2013-07-10 23:40:00,77.7,77.4,30.03,SW,225,1.6,3.1,99,0.00,,,0.06,1030.0,meteobridge,2013-07-11 03:40:00,
2013-07-10 23:45:00,77.9,77.5,30.04,South,180,3.1,3.1,99,0.00,,,0.06,1104.0,meteobridge,2013-07-11 03:45:00,
2013-07-10 23:50:00,77.9,77.5,30.04,East,90,3.8,3.8,99,0.00,,,0.06,1104.0,meteobridge,2013-07-11 03:50:00,
2013-07-10 23:56:00,78.1,77.7,30.04,SSE,158,1.6,3.1,99,0.00,,,0.06,1104.0,meteobridge,2013-07-11 03:56:00,